FW9268 Weather Reports


Display with metric or nautical units.
time (UTC)temp
F
wind
direction
speed
MPH
gust
MPH
rain 1hr
in
rain 24hr
in
rain mn
in
humidity
%
barometer
mb
20260905110053 65 33 0.0 5.0 0.00 0.00 0.00 97 1025.6
20260905110003 65 33 0.0 5.0 0.00 0.00 0.00 97 1016.0
20260905104606 65 86 0.0 3.0 0.00 0.00 0.00 97 1025.5
20260905104500 65 61 0.0 3.0 0.00 0.00 0.00 97 1015.8
20260905103100 66 59 1.0 5.0 0.00 0.00 0.00 97 1015.8
20260905103050 66 0 1.0 5.0 0.00 0.00 0.00 97 1025.4
20260905101604 66 90 0.0 6.0 0.00 0.00 0.00 97 1016.0
20260905101551 66 0 0.0 6.0 0.00 0.00 0.00 97 1025.6
20260905100105 66 82 0.0 4.0 0.00 0.00 0.00 98 1016.0
20260905100046 66 0 1.0 4.0 0.00 0.00 0.00 97 1025.6
20260905094702 66 0 0.0 2.0 0.00 0.00 0.00 97 1025.6
20260905094557 66 64 0.0 2.0 0.00 0.00 0.00 98 1016.0
20260905093059 66 0 0.0 2.0 0.00 0.00 0.00 97 1025.7
20260905093057 66 67 0.0 2.0 0.00 0.00 0.00 98 1016.2
20260905091556 66 67 0.0 3.0 0.00 0.00 0.00 98 1016.2
20260905090123 66 74 0.0 2.0 0.00 0.00 0.00 97 1016.2
20260905090046 66 0 0.0 2.0 0.00 0.00 0.00 97 1025.8
20260905084556 67 0 0.0 2.0 0.00 0.00 0.00 97 1025.8
20260905084553 67 68 0.0 2.0 0.00 0.00 0.00 97 1016.2
20260905083053 67 71 0.0 0.0 0.00 0.00 0.00 97 1016.3
20260905083049 67 0 0.0 0.0 0.00 0.00 0.00 97 1025.8
20260905081552 67 71 0.0 0.0 0.00 0.00 0.00 97 1016.2
20260905081548 67 0 0.0 2.0 0.00 0.00 0.00 97 1025.8
20260905080104 67 0 0.0 1.0 0.00 0.00 0.00 97 1025.7
20260905080050 67 71 0.0 1.0 0.00 0.00 0.00 97 1016.1
20260905074559 67 0 0.0 2.0 0.00 0.00 0.00 97 1025.7
20260905074549 67 71 0.0 2.0 0.00 0.00 0.00 97 1016.1
20260905073050 67 0 0.0 2.0 0.00 0.00 0.00 97 1025.6
20260905073048 67 105 0.0 2.0 0.00 0.00 0.00 97 1016.0
20260905071549 68 0 0.0 3.0 0.00 0.00 0.00 97 1025.6
20260905071547 68 105 0.0 3.0 0.00 0.00 0.00 97 1015.9
20260905070048 68 105 0.0 3.0 0.00 0.00 0.00 97 1015.7
20260905070043 68 0 0.0 3.0 0.00 0.00 0.00 96 1025.3
20260905064550 68 105 0.0 3.0 0.00 0.00 0.00 96 1025.1
20260905064544 68 105 1.0 3.0 0.00 0.00 0.00 97 1015.4
20260905063044 68 0 0.0 2.0 0.00 0.00 0.00 96 1025.1
20260905061559 68 0 0.0 3.0 0.00 0.00 0.00 96 1025.2
20260905061543 68 105 0.0 3.0 0.00 0.00 0.00 97 1015.6
20260905060103 68 105 0.0 3.0 0.00 0.00 0.00 96 1025.2
20260905060041 68 105 0.0 2.0 0.00 0.00 0.00 96 1015.6
20260905054556 68 81 1.0 7.0 0.00 0.00 0.00 96 1025.3
20260905054540 68 82 2.0 6.0 0.00 0.00 0.00 96 1015.7
20260905053045 68 105 0.0 4.0 0.00 0.00 0.00 95 1025.2
20260905053039 69 105 1.0 4.0 0.00 0.00 0.00 96 1015.6
20260905051557 69 0 0.0 5.0 0.00 0.00 0.00 95 1025.2
20260905051537 69 101 0.0 5.0 0.00 0.00 0.00 96 1015.6
20260905050051 69 143 2.0 7.0 0.00 0.00 0.00 95 1025.0
20260905050035 69 143 1.0 7.0 0.00 0.00 0.00 95 1015.3
20260905044550 69 113 1.0 4.0 0.00 0.00 0.00 95 1024.9
20260905044534 69 113 2.0 4.0 0.00 0.00 0.00 95 1015.2
20260905043045 69 101 2.0 6.0 0.00 0.00 0.00 94 1024.9
20260905043033 69 101 1.0 6.0 0.00 0.00 0.00 95 1015.1
20260905041556 70 74 0.0 7.0 0.00 0.00 0.00 94 1024.9
20260905041546 70 74 1.0 5.0 0.00 0.00 0.00 95 1015.1
20260905040105 70 20 0.0 5.0 0.00 0.00 0.00 94 1024.8
20260905040033 70 20 0.0 3.0 0.00 0.00 0.00 95 1015.1
20260905034546 70 0 0.0 4.0 0.00 0.00 0.00 94 1024.9
20260905034534 70 26 0.0 3.0 0.00 0.00 0.00 95 1015.2
20260905033056 70 16 0.0 5.0 0.00 0.00 0.00 94 1024.8
20260905033033 70 16 0.0 5.0 0.00 0.00 0.00 94 1015.2
20260905031549 71 0 1.0 5.0 0.00 0.00 0.00 94 1024.8
20260905031534 71 22 0.0 5.0 0.00 0.00 0.00 94 1015.1
20260905030108 71 0 0.0 3.0 0.00 0.00 0.00 94 1025.0
20260905030030 71 71 0.0 3.0 0.00 0.00 0.00 94 1015.2
20260905024603 71 78 1.0 4.0 0.00 0.00 0.00 94 1024.8
20260905024531 71 79 1.0 6.0 0.00 0.00 0.00 94 1015.1
20260905023053 71 90 1.0 5.0 0.00 0.00 0.00 94 1024.8
20260905023028 71 90 1.0 4.0 0.00 0.00 0.00 95 1015.1
20260905021549 71 81 2.0 9.0 0.00 0.00 0.00 94 1024.5
20260905021534 71 81 2.0 5.0 0.00 0.00 0.00 95 1014.9
20260905020043 71 72 0.0 7.0 0.00 0.00 0.00 94 1024.3
20260905020026 71 72 0.0 6.0 0.00 0.00 0.00 94 1014.7
20260905014544 71 51 2.0 11.0 0.00 0.00 0.00 93 1024.6
20260905014526 71 51 1.0 6.0 0.00 0.00 0.00 94 1014.8
20260905013110 72 80 1.0 8.0 0.00 0.00 0.00 93 1024.2
20260905013023 72 80 1.0 8.0 0.00 0.00 0.00 94 1014.5
20260905011543 72 61 0.0 4.0 0.00 0.00 0.00 93 1024.1
20260905011523 72 61 1.0 4.0 0.00 0.00 0.00 93 1014.4
20260905010057 72 43 2.0 5.0 0.00 0.00 0.00 92 1024.0
20260905010021 72 43 1.0 5.0 0.00 0.00 0.00 93 1014.2
20260905004554 72 0 1.0 10.0 0.00 0.00 0.00 92 1024.2
20260905004521 72 110 1.0 10.0 0.00 0.00 0.00 93 1014.4
20260905003048 73 69 1.0 9.0 0.00 0.00 0.00 92 1024.0
20260905003020 73 69 1.0 9.0 0.00 0.00 0.00 92 1014.2
20260905001545 73 55 3.0 13.0 0.00 0.00 0.00 91 1023.7
20260905001519 73 49 5.0 13.0 0.00 0.00 0.00 91 1014.0
20260905000050 74 147 2.0 11.0 0.00 0.00 0.00 90 1023.6
20260905000017 74 148 1.0 11.0 0.00 0.00 0.00 90 1013.7
20260904234550 75 92 1.0 7.0 0.00 0.00 0.00 89 1023.3
20260904234515 75 93 1.0 8.0 0.00 0.00 0.00 89 1013.5
20260904233048 75 32 0.0 12.0 0.00 0.00 0.00 88 1023.2
20260904233016 75 32 0.0 8.0 0.00 0.00 0.00 88 1013.5
20260904231546 76 352 2.0 11.0 0.00 0.00 0.00 87 1022.9
20260904231514 76 70 2.0 10.0 0.00 0.00 0.00 88 1013.2
20260904230059 78 28 1.0 8.0 0.00 0.00 0.00 87 1022.5
20260904230013 78 90 0.0 8.0 0.00 0.00 0.00 87 1012.7
20260904224551 80 360 1.0 4.0 0.00 0.00 0.00 85 1022.2
20260904224511 80 316 1.0 4.0 0.00 0.00 0.00 85 1012.4
20260904223104 81 5 1.0 4.0 0.00 0.00 0.00 83 1022.1
20260904223011 81 5 0.0 4.0 0.00 0.00 0.00 83 1012.4
20260904221544 81 0 0.0 3.0 0.00 0.00 0.00 83 1022.0
20260904221511 81 335 0.0 3.0 0.00 0.00 0.00 84 1012.2
20260904220052 82 285 3.0 6.0 0.00 0.00 0.00 82 1022.0
20260904220010 82 319 3.0 6.0 0.00 0.00 0.00 81 1012.3
20260904214552 81 344 2.0 6.0 0.00 0.00 0.00 82 1022.1
20260904214508 81 343 2.0 6.0 0.00 0.00 0.00 82 1012.3
20260904213058 80 325 0.0 6.0 0.00 0.00 0.00 83 1022.1
20260904213008 80 325 0.0 6.0 0.00 0.00 0.00 84 1012.3
20260904211550 80 30 0.0 4.0 0.00 0.00 0.00 84 1022.0
20260904211504 80 30 0.0 3.0 0.00 0.00 0.00 85 1012.2
20260904210049 79 0 2.0 5.0 0.00 0.00 0.00 85 1022.0
20260904210002 80 54 2.0 5.0 0.00 0.00 0.00 86 1012.2
20260904204542 80 326 0.0 5.0 0.00 0.00 0.00 84 1021.9
20260904204503 80 63 1.0 5.0 0.00 0.00 0.00 85 1012.1
20260904203044 80 0 2.0 6.0 0.00 0.00 0.00 85 1022.1
20260904203001 80 335 1.0 6.0 0.00 0.00 0.00 85 1012.3
20260904201601 80 63 1.0 4.0 0.00 0.00 0.00 86 1012.4
20260904201547 80 69 0.0 4.0 0.00 0.00 0.00 86 1022.1
20260904200112 79 100 0.0 3.0 0.00 0.00 0.00 88 1012.4
20260904200108 79 0 0.0 3.0 0.00 0.00 0.00 88 1022.1
20260904194609 78 100 0.0 3.0 0.00 0.00 0.00 87 1012.5
20260904194548 78 0 0.0 3.0 0.00 0.00 0.00 87 1022.2
20260904193057 79 52 2.0 4.0 0.00 0.00 0.00 85 1012.5
20260904193051 79 52 2.0 4.0 0.00 0.00 0.00 85 1022.2
20260904191556 80 252 0.0 1.0 0.00 0.00 0.00 89 1012.5
20260904191551 79 0 0.0 2.0 0.00 0.00 0.00 87 1022.3
20260904190053 79 234 0.0 3.0 0.00 0.00 0.00 87 1012.6
20260904190047 79 229 1.0 3.0 0.00 0.00 0.00 86 1022.2
20260904184606 78 196 0.0 2.0 0.00 0.00 0.00 88 1012.6
20260904184557 77 0 0.0 3.0 0.00 0.00 0.00 88 1022.3
20260904183050 77 196 0.0 2.0 0.00 0.00 0.00 89 1022.4
20260904181605 77 196 1.0 3.0 0.00 0.00 0.00 89 1012.7
20260904181548 77 196 1.0 3.0 0.00 0.00 0.00 88 1022.4
20260904180054 77 0 0.0 6.0 0.00 0.00 0.00 90 1022.4
20260904180052 77 196 0.0 6.0 0.00 0.00 0.00 89 1012.7
20260904174551 77 0 0.0 4.0 0.00 0.00 0.00 89 1022.4
20260904174545 77 161 0.0 3.0 0.00 0.00 0.00 89 1012.7
20260904173047 76 0 0.0 5.0 0.00 0.00 0.00 90 1022.5
20260904173044 76 161 0.0 5.0 0.00 0.00 0.00 90 1012.8
20260904171611 76 0 2.0 6.0 0.00 0.00 0.00 90 1022.5
20260904170045 75 185 1.0 4.0 0.00 0.00 0.00 89 1022.6
20260904170038 75 185 1.0 4.0 0.00 0.00 0.00 90 1012.8
20260904164549 75 174 0.0 3.0 0.00 0.00 0.00 90 1022.7
20260904164536 75 175 1.0 5.0 0.00 0.00 0.00 91 1013.0
20260904163054 75 173 2.0 6.0 0.00 0.00 0.00 91 1022.6
20260904163034 75 173 2.0 5.0 0.00 0.00 0.00 91 1013.0
20260904161555 74 176 1.0 5.0 0.00 0.00 0.00 91 1022.6
20260904161533 74 176 0.0 5.0 0.00 0.00 0.00 92 1012.9
20260904160057 74 175 3.0 6.0 0.00 0.00 0.00 91 1022.7
20260904160033 74 175 3.0 6.0 0.00 0.00 0.00 92 1013.0
20260904154550 73 174 3.0 7.0 0.00 0.00 0.00 92 1022.4
20260904154535 73 174 4.0 6.0 0.00 0.00 0.00 93 1013.0
20260904153106 73 175 3.0 6.0 0.00 0.00 0.00 92 1022.4
20260904153020 73 175 4.0 6.0 0.00 0.00 0.00 93 1012.7
20260904151543 72 164 3.0 10.0 0.00 0.00 0.00 93 1022.3
20260904151514 72 148 3.0 10.0 0.00 0.00 0.00 93 1012.7
20260904150053 72 146 1.0 7.0 0.00 0.00 0.00 92 1022.3
20260904150010 72 145 1.0 7.0 0.00 0.00 0.00 93 1012.5
20260904144556 72 180 2.0 7.0 0.00 0.00 0.00 92 1022.1
20260904144506 72 180 2.0 6.0 0.00 0.00 0.00 93 1012.4
20260904143106 71 146 3.0 8.0 0.00 0.00 0.00 93 1022.2
20260904143008 71 144 3.0 8.0 0.00 0.00 0.00 93 1012.5
20260904141601 71 184 1.0 7.0 0.00 0.00 0.00 94 1012.6
20260904141543 71 184 3.0 7.0 0.00 0.00 0.00 93 1022.3
20260904140058 71 132 3.0 7.0 0.00 0.00 0.00 94 1012.4
20260904140053 71 144 3.0 7.0 0.00 0.00 0.00 93 1021.9
20260904134554 70 161 2.0 9.0 0.00 0.00 0.00 94 1012.5
20260904134552 70 161 2.0 13.0 0.00 0.00 0.00 94 1022.0
20260904133100 70 199 3.0 10.0 0.00 0.00 0.00 94 1012.6
20260904133047 70 199 4.0 11.0 0.00 0.00 0.00 94 1022.0
20260904131553 70 163 3.0 9.0 0.00 0.00 0.00 94 1022.1
20260904131550 70 139 4.0 8.0 0.00 0.00 0.00 95 1012.6
20260904130059 69 137 3.0 7.0 0.00 0.00 0.00 95 1021.8
20260904130048 69 146 3.0 7.0 0.00 0.00 0.00 95 1012.4
20260904124547 69 131 2.0 10.0 0.00 0.00 0.00 95 1021.9
20260904124545 69 168 4.0 10.0 0.00 0.00 0.00 95 1012.3
20260904123053 69 111 5.0 10.0 0.00 0.00 0.00 95 1021.7
20260904123043 69 111 3.0 10.0 0.00 0.00 0.00 95 1012.3
20260904121549 69 0 3.0 9.0 0.00 0.00 0.00 95 1021.5
20260904121542 69 126 3.0 9.0 0.00 0.00 0.00 95 1012.2
20260904120058 69 163 3.0 8.0 0.00 0.00 0.00 94 1021.8
20260904120052 69 163 4.0 8.0 0.00 0.00 0.00 95 1012.4
20260904114548 69 169 1.0 5.0 0.00 0.00 0.00 94 1021.8
20260904114538 69 168 0.0 5.0 0.00 0.00 0.00 95 1012.4
20260904113051 69 137 0.0 6.0 0.00 0.00 0.00 94 1021.5
20260904113038 69 142 0.0 6.0 0.00 0.00 0.00 95 1012.1
20260904111551 69 138 1.0 4.0 0.00 0.00 0.00 95 1021.3
20260904111537 69 138 1.0 4.0 0.00 0.00 0.00 95 1011.9